| time (UTC) | temp C | wind direction | speed KPH | gust KPH | rain 1hr cm | rain 24hr cm | rain mn cm | humidity % | barometer mb |
| 20260510110309 | 6 | 200 | 38.6 | 0.0 | 0.00 | 0.00 | 0.00 | 75 | 1007.0 |
| 20260510103307 | 6 | 200 | 41.8 | 61.2 | 0.00 | 0.00 | 0.00 | 75 | 1007.0 |
| 20260510100308 | 5 | 190 | 38.6 | 0.0 | 0.00 | 0.00 | 0.00 | 81 | 1008.0 |
| 20260510093307 | 5 | 190 | 38.6 | 0.0 | 0.00 | 0.00 | 0.00 | 86 | 1008.0 |
| 20260510090307 | 5 | 190 | 45.1 | 0.0 | 0.00 | 0.00 | 0.00 | 81 | 1007.0 |
| 20260510083307 | 5 | 200 | 41.8 | 0.0 | 0.00 | 0.00 | 0.00 | 86 | 1007.0 |
| 20260510080308 | 5 | 190 | 37.0 | 57.9 | 0.00 | 0.00 | 0.00 | 75 | 1007.0 |
| 20260510073308 | 5 | 190 | 41.8 | 0.0 | 0.00 | 0.00 | 0.00 | 81 | 1008.0 |
| 20260510070308 | 6 | 190 | 37.0 | 0.0 | 0.00 | 0.00 | 0.00 | 81 | 1008.0 |
| 20260510063308 | 5 | 190 | 40.2 | 61.2 | 0.00 | 0.00 | 0.00 | 81 | 1008.0 |
| 20260510060307 | 5 | 200 | 41.8 | 64.4 | 0.00 | 0.00 | 0.00 | 86 | 1008.0 |
| 20260510053307 | 5 | 190 | 37.0 | 57.9 | 0.00 | 0.00 | 0.00 | 81 | 1008.0 |
| 20260510050307 | 5 | 190 | 41.8 | 0.0 | 0.00 | 0.00 | 0.00 | 81 | 1008.0 |
| 20260510043307 | 5 | 190 | 32.2 | 0.0 | 0.00 | 0.00 | 0.00 | 86 | 1008.0 |
| 20260510040306 | 5 | 200 | 41.8 | 61.2 | 0.00 | 0.00 | 0.00 | 86 | 1008.0 |
| 20260510033307 | 5 | 190 | 37.0 | 0.0 | 0.00 | 0.00 | 0.00 | 86 | 1009.0 |
| 20260510030306 | 5 | 190 | 37.0 | 0.0 | 0.00 | 0.00 | 0.00 | 86 | 1009.0 |
| 20260510023308 | 5 | 190 | 35.4 | 53.1 | 0.00 | 0.00 | 0.00 | 86 | 1009.0 |
| 20260510020307 | 5 | 190 | 35.4 | 0.0 | 0.00 | 0.00 | 0.00 | 86 | 1009.0 |
| 20260510013306 | 5 | 190 | 45.1 | 0.0 | 0.00 | 0.00 | 0.00 | 86 | 1010.0 |
| 20260510010307 | 5 | 200 | 40.2 | 0.0 | 0.00 | 0.00 | 0.00 | 81 | 1010.0 |
| 20260510003306 | 5 | 190 | 38.6 | 0.0 | 0.00 | 0.00 | 0.00 | 75 | 1010.0 |
| 20260510000308 | 5 | 190 | 37.0 | 0.0 | 0.00 | 0.00 | 0.00 | 81 | 1011.0 |
| 20260509233307 | 5 | 190 | 37.0 | 0.0 | 0.00 | 0.00 | 0.00 | 81 | 1011.0 |
| 20260509230307 | 6 | 190 | 33.8 | 0.0 | 0.00 | 0.00 | 0.00 | 70 | 1011.0 |
| 20260509223308 | 6 | 190 | 29.0 | 0.0 | 0.00 | 0.00 | 0.00 | 70 | 1012.0 |
| 20260509220306 | 6 | 180 | 27.4 | 0.0 | 0.00 | 0.00 | 0.00 | 65 | 1012.0 |
| 20260509213307 | 6 | 170 | 24.1 | 0.0 | 0.00 | 0.00 | 0.00 | 65 | 1012.0 |
| 20260509210307 | 6 | 170 | 25.7 | 0.0 | 0.00 | 0.00 | 0.00 | 65 | 1013.0 |
| 20260509203307 | 6 | 180 | 24.1 | 0.0 | 0.00 | 0.00 | 0.00 | 65 | 1013.0 |
| 20260509200307 | 6 | 170 | 22.5 | 0.0 | 0.00 | 0.00 | 0.00 | 65 | 1013.0 |
| 20260509193307 | 5 | 180 | 24.1 | 0.0 | 0.00 | 0.00 | 0.00 | 70 | 1014.0 |
| 20260509190307 | 5 | 180 | 24.1 | 0.0 | 0.00 | 0.00 | 0.00 | 75 | 1014.0 |
| 20260509183306 | 5 | 170 | 27.4 | 0.0 | 0.00 | 0.00 | 0.00 | 75 | 1014.0 |
| 20260509180308 | 5 | 180 | 22.5 | 0.0 | 0.00 | 0.00 | 0.00 | 75 | 1014.0 |
| 20260509173308 | 5 | 180 | 19.3 | 0.0 | 0.00 | 0.00 | 0.00 | 86 | 1015.0 |
| 20260509170307 | 5 | 220 | 22.5 | 0.0 | 0.00 | 0.00 | 0.00 | 93 | 1015.0 |
| 20260509163307 | 5 | 230 | 19.3 | 0.0 | 0.00 | 0.00 | 0.00 | 86 | 1015.0 |
| 20260509160308 | 6 | 230 | 8.0 | 0.0 | 0.00 | 0.00 | 0.00 | 93 | 1015.0 |
| 20260509153308 | 6 | 0 | 3.2 | 0.0 | 0.00 | 0.00 | 0.00 | 93 | 1015.0 |
| 20260509150308 | 7 | 0 | 1.6 | 0.0 | 0.00 | 0.00 | 0.00 | 87 | 1015.0 |
| 20260509143307 | 7 | 0 | 1.6 | 0.0 | 0.00 | 0.00 | 0.00 | 87 | 1015.0 |
| 20260509140307 | 8 | 0 | 3.2 | 0.0 | 0.00 | 0.00 | 0.00 | 75 | 1016.0 |
| 20260509133308 | 8 | 0 | 3.2 | 0.0 | 0.00 | 0.00 | 0.00 | 75 | 1016.0 |
| 20260509130307 | 8 | 0 | 3.2 | 0.0 | 0.00 | 0.00 | 0.00 | 75 | 1016.0 |
| 20260509123307 | 10 | 0 | 3.2 | 0.0 | 0.00 | 0.00 | 0.00 | 71 | 1016.0 |
| 20260509120307 | 8 | 250 | 11.3 | 0.0 | 0.00 | 0.00 | 0.00 | 75 | 1016.0 |
| 20260509113307 | 10 | 220 | 14.5 | 0.0 | 0.00 | 0.00 | 0.00 | 66 | 1016.0 |